This is the latest recevied weather packets stored in our database for station/object WX5KDM. If no packets are shown the sender has not sent any weather packets the latest 10 day(s).
| Time | Temp. | Humidity | Pressure | Rain* | Wind** | Luminosity | Snow |
|---|---|---|---|---|---|---|---|
| 1777406584 | 21.67° C | 96% | 1015.3 hPa | 0 mm | - | - | - |
| 1777406280 | 21.67° C | 96% | 1015.3 hPa | 0 mm | - | - | - |
| 1777405979 | 21.67° C | 96% | 1015.4 hPa | 0 mm | - | - | - |
| 1777405675 | 21.67° C | 95% | 1015.6 hPa | 0 mm | - | - | - |
| 1777405373 | 22.22° C | 94% | 1015.8 hPa | 0 mm | - | - | - |
| 1777405068 | 22.22° C | 93% | 1016.2 hPa | 0 mm | - | - | - |
| 1777404763 | 22.78° C | 91% | 1016.1 hPa | 0 mm | - | - | - |
| 1777404460 | 22.78° C | 90% | 1016 hPa | 0 mm | - | - | - |
| 1777404156 | 22.78° C | 91% | 1016.5 hPa | 0 mm | - | - | - |
| 1777403852 | 22.78° C | 90% | 1016.6 hPa | 0 mm | - | - | - |
| 1777403546 | 22.78° C | 90% | 1016.7 hPa | 0 mm | - | - | - |
| 1777403241 | 22.78° C | 90% | 1016.8 hPa | 0 mm | - | - | - |
| 1777402936 | 22.78° C | 90% | 1017 hPa | 0 mm | - | - | - |
| 1777402632 | 22.78° C | 90% | 1017 hPa | 0 mm | - | - | - |
| 1777402330 | 23.33° C | 89% | 1017 hPa | 0 mm | - | - | - |
| 1777402029 | 23.33° C | 89% | 1017.3 hPa | 0 mm | - | - | - |
| 1777401729 | 23.33° C | 88% | 1017.1 hPa | 0 mm | - | - | - |
| 1777401425 | 23.89° C | 88% | 1017.2 hPa | 0 mm | - | - | - |
| 1777401120 | 23.89° C | 87% | 1017.2 hPa | 0 mm | - | - | - |
| 1777400816 | 24.44° C | 87% | 1017.2 hPa | 0 mm | - | - | - |
| 1777400513 | 24.44° C | 86% | 1017.3 hPa | 0 mm | - | - | - |
| 1777400210 | 25° C | 85% | 1017.3 hPa | 0 mm | - | - | - |
| 1777399905 | 24.44° C | 85% | 1017.3 hPa | 0 mm | - | - | - |
| 1777399603 | 25° C | 85% | 1017.2 hPa | 0 mm | - | - | - |
| 1777399300 | 25° C | 85% | 1017.1 hPa | 0 mm | - | - | - |
* Rain latest hour (hover to see other rain measurements)
** Current wind speed in m/s (hover to see current wind gust speed)